sat.trackr.live / text

‹ back to catalog

ONEWEB-0338

NORAD 49204 · 2021-083U

PAYLOAD ACTIVE UNKNOWN

§ Identity

Operator
Country
UK
Launch date
2021-09-14
Launch site
TYMSC
Launch vehicle
Mass (kg)
RCS (m²)

Purposes: comms

External: N2YO · Heavens-Above · Gunter

§ Orbital elements

Epoch: 2026-05-25T02:04:58.693152Z

Period
109.03 min
Inclination
87.9163°
Eccentricity
0.0001623
Mean motion
13.20773462 rev/d
Perigee alt
1,180.5 km
Apogee alt
1,183.0 km
Semi-major
7,559.9 km
B*
1.4672e-4
RAAN
279.0565°
Arg perigee
92.4351°
Mean anomaly
267.6969°
Rev number
23,376

§ Raw data

ONEWEB-03381 49204U 21083U   26145.08679043  .00000073  00000+0  14672-3 0  99902 49204  87.9163 279.0565 0001623  92.4351 267.6969 13.20773462233766

JSON: /api/v1/satellites/49204 · /tle

For live sub-satellite position, see the globe view (requires WebGL).

§ Visibility from observer

Set your observer location to see the next 7 days of passes ≥ 10°. The values pass through the URL so the page stays shareable.

No JS? Fill the form by hand. The geolocation button needs JavaScript.